Zurück zum Katalog

STARLINK-38129

AktivKommunikationSSO
NORAD 100268·PAYLOAD·🇺🇸 United States

Gestartet Aug 8, 2026 von Vandenberg Space Force Base

Loading…

Nächste Überflüge (nächste 24 Stunden)

TLE

AktuellSource: Space-Track

Epoche: Sep 14, 2026, 02:49 UTC

1 A0268U 26181Y   26257.11804474  .00073043  00000-0  48561-3 0  9999
2 A0268  97.2837 300.3664 0001937  68.9934 291.1538 15.75226730  6941

Verfolge STARLINK-38129 in Echtzeit mit AllMySat

Download on the App Store